Hourly Data Report for January 10, 2018

All times are specified in Local Standard Time (LST). Add 1 hour to adjust for Daylight Saving Time where and when it is observed.

OTTAWA INTL A
ONTARIO

45°19'00.000" N
75°40'00.000" W
114.90 m
6106001
71628
YOW

Download Data

Hourly Data (January 2018)
Hourly Data Report for January 10, 2018
Temp Definition
°C
Dew Point Temp Definition
°C
Rel Hum Definition
%
Wind Dir Definition
10's deg

Wind Spd Definition
km/h
Visibility Definition
km
Stn Press Definition
kPa
Hmdx Definition


Wind Chill Definition


Weather Definition


TIME
00:00 Legend Double Dagger -11.0 -12.3 90 21 9 24.1 101.50   -16 LegendNANA
01:00 Legend Double Dagger -13.8 -15.0 91 36 3 24.1 101.50   -16 Clear
02:00 Legend Double Dagger -14.2 -15.9 87 0 1 24.1 101.54   -15 LegendNANA
03:00 Legend Double Dagger -15.2 -16.8 88 18 8 24.1 101.56   -21 LegendNANA
04:00 Legend Double Dagger -13.5 -15.4 86 19 8 24.1 101.50   -19 Clear
05:00 Legend Double Dagger -13.8 -15.6 87 36 3 24.1 101.53   -16 LegendNANA
06:00 Legend Double Dagger -15.3 -17.4 84 36 2 24.1 101.55   -17 LegendNANA
07:00 Legend Double Dagger -15.1 -17.0 86 11 6 24.1 101.50   -19 Mainly Clear
08:00 Legend Double Dagger -12.9 -14.6 87 5 9 24.1 101.51   -18 LegendNANA
09:00 Legend Double Dagger -11.6 -12.9 90 7 10 16.1 101.50   -17 LegendNANA
10:00 Legend Double Dagger -11.4 -13.0 88 8 11 16.1 101.48   -17 Mostly Cloudy
11:00 Legend Double Dagger -10.2 -11.9 87 6 13 24.1 101.37   -16 LegendNANA
12:00 Legend Double Dagger -9.1 -11.2 84 10 10 16.1 101.27   -14 LegendNANA
13:00 Legend Double Dagger -5.6 -10.0 72 9 16 16.1 101.09   -12 Mostly Cloudy
14:00 Legend Double Dagger -4.8 -9.1 72 11 17 24.1 101.03   -11 LegendNANA
15:00 Legend Double Dagger -4.5 -8.8 72 8 16 24.1 100.98   -10 LegendNANA
16:00 Legend Double Dagger -4.3 -8.6 72 9 19 24.1 100.92   -10 Cloudy
17:00 Legend Double Dagger -4.4 -8.4 73 10 18 24.1 100.75   -10 LegendNANA
18:00 Legend Double Dagger -4.3 -8.2 75 8 14 24.1 100.74   -9 LegendNANA
19:00 Legend Double Dagger -4.4 -7.6 78 7 13 24.1 100.70   -9 Cloudy
20:00 Legend Double Dagger -4.3 -7.0 82 10 19 24.1 100.55   -10 LegendNANA
21:00 Legend Double Dagger -4.1 -6.2 86 8 16 24.1 100.45   -10 LegendNANA
22:00 Legend Double Dagger -4.1 -5.5 90 9 10 12.9 100.43   -8 Freezing Drizzle
23:00 Legend Double Dagger -3.4 -4.2 94 10 11 6.4 100.42   -8 Freezing Drizzle

Notes on Data Quality.

Legend

  • E = Estimated
  • M = Missing
  • NA = Not Available
  • ‡ = Partner data that is not subject to review by the National Climate Archives
Date modified: